Location: Clyde
(45.1830°S, 169.3170°E)
Time: 06:15:28
(UTC+12:00)

PSLV R/B - Pass Details

Date: 14 May 2021
Orbit: 567 x 598 km, 98.2° (Epoch: 19 June)

Event Time Altitude Azimuth Distance (km) Brightness Sun altitude
Rises 18:39:04 0° 15° (NNE) 2,811 7.4 -13.1°
Reaches altitude 10° 18:41:13 10° 15° (NNE) 1,914 6.6 -13.5°
Maximum altitude 18:45:23 90° 3° (N) 596 3.9 -14.2°
Drops below altitude 10° 18:49:34 10° 193° (SSW) 1,925 6.6 -14.9°
Sets 18:51:44 0° 193° (SSW) 2,828 7.5 -15.3°
